This is the latest recevied weather packets stored in our database for station/object N7CEE. If no packets are shown the sender has not sent any weather packets the latest 10 day(s).
| Time | Temp. | Humidity | Pressure | Rain* | Wind** | Luminosity | Snow |
|---|---|---|---|---|---|---|---|
| 1777669213 | 14.44° C | 29% | 1022.6 hPa | 0 mm | - | 145 W/m² | - |
| 1777668910 | 14.44° C | 29% | 1022.6 hPa | 0 mm | - | 113 W/m² | - |
| 1777668608 | 15° C | 29% | 1022.8 hPa | 0 mm | - | 129 W/m² | - |
| 1777668303 | 15° C | 27% | 1022.6 hPa | 0 mm | - | 214 W/m² | - |
| 1777667999 | 15° C | 27% | 1022.8 hPa | 0 mm | - | 340 W/m² | - |
| 1777667696 | 15° C | 27% | 1022.6 hPa | 0 mm | - | 149 W/m² | - |
| 1777667394 | 15° C | 28% | 1022.6 hPa | 0 mm | - | 119 W/m² | - |
| 1777667090 | 15° C | 27% | 1022.8 hPa | 0 mm | - | 168 W/m² | - |
| 1777666787 | 15° C | 27% | 1022.9 hPa | 0 mm | - | 272 W/m² | - |
| 1777666484 | 15° C | 28% | 1022.9 hPa | 0 mm | - | 180 W/m² | - |
| 1777666181 | 14.44° C | 30% | 1022.9 hPa | 0 mm | - | 117 W/m² | - |
| 1777665878 | 14.44° C | 29% | 1022.8 hPa | 0 mm | - | 93 W/m² | - |
| 1777665575 | 14.44° C | 29% | 1022.9 hPa | 0 mm | - | 100 W/m² | - |
| 1777665272 | 15° C | 27% | 1022.8 hPa | 0 mm | - | 128 W/m² | - |
| 1777664968 | 15.56° C | 25% | 1022.8 hPa | 0 mm | - | 132 W/m² | - |
| 1777664664 | 16.11° C | 25% | 1022.6 hPa | 0 mm | - | 172 W/m² | - |
| 1777664360 | 16.11° C | 25% | 1022.8 hPa | 0 mm | - | 493 W/m² | - |
| 1777664059 | 15.56° C | 25% | 1022.9 hPa | 0 mm | - | 291 W/m² | - |
| 1777663756 | 15.56° C | 26% | 1023 hPa | 0 mm | - | 271 W/m² | - |
| 1777663453 | 16.11° C | 26% | 1023.1 hPa | 0 mm | - | 299 W/m² | - |
| 1777663150 | 16.11° C | 26% | 1023 hPa | 0 mm | - | 258 W/m² | - |
| 1777662847 | 15.56° C | 26% | 1023 hPa | 0 mm | - | 777 W/m² | - |
| 1777662544 | 15° C | 26% | 1023.2 hPa | 0 mm | - | 543 W/m² | - |
| 1777662240 | 15° C | 26% | 1023.1 hPa | 0 mm | - | 231 W/m² | - |
| 1777661934 | 15° C | 27% | 1023.1 hPa | 0 mm | - | 187 W/m² | - |
* Rain latest hour (hover to see other rain measurements)
** Current wind speed in m/s (hover to see current wind gust speed)